Regional Weather Roundup
Issued by NWS Cleveland, OH

Home | Current Version | Previous Version | Text Only | Print | Product List | Glossary Off
Versions: 1 2 3 4 5 6 7 8 9 10 11 12 13 14 15 16 17 18 19 20 21 22 23 24 25 26 27 28 29 30 31 32 33 34 35 36 37 38 39 40 41 42 43 44 45 46 47 48 49 50

000
ASUS41 KCLE 192212
RWRCLE
OHIO REGIONAL WEATHER ROUNDUP
NATIONAL WEATHER SERVICE WILMINGTON, OH
600 PM EDT THU OCT 19 2017

NOTE: "FAIR" INDICATES FEW OR NO CLOUDS BELOW 12,000 FEET WITH NO
SIGNIFICANT WEATHER AND/OR OBSTRUCTIONS TO VISIBILITY.

OHZ001>008-015>018-024>027-034-035-043-044-192300-
   NORTHWEST OHIO

CITY           SKY/WX    TMP DP  RH WIND       PRES   REMARKS
DEFIANCE       FAIR      69  38  32 W5        30.15R
FINDLAY        FAIR      70  49  47 W12       30.13S
TOLEDO EXPRESS FAIR      69  40  34 W13       30.13R
TOLEDO EXEC    FAIR      69  42  37 W9        30.13R
LIMA           FAIR      70  51  51 W8        30.16R
$$

OHZ009>014-019>023-028>033-038-089-192300-
   NORTHEAST OHIO

CITY           SKY/WX    TMP DP  RH WIND       PRES   REMARKS
CLE-HOPKINS    FAIR      71  50  47 W16       30.13R
CLE-LAKEFRONT  FAIR      70  51  51 SW14G21   30.09S
CUY CO. ARPT   PTCLDY    72  52  49 W16       30.11S
LORAIN-ELYRIA  FAIR      70  46  42 W12       30.12S
ASHTABULA      FAIR      70  48  45 W15       30.10S
AKRON-CANTON   FAIR      69  48  47 SW15G21   30.14R
WOOSTER        FAIR      69  49  48 SW7       30.14S
MANSFIELD      FAIR      70  47  43 W13G18    30.15S
YOUNGSTOWN     CLOUDY    69  49  48 SW12G21   30.12S
$$

OHZ042-051>053-060>062-070>072-077>081-192300-
  SOUTHWEST OHIO

CITY           SKY/WX    TMP DP  RH WIND       PRES   REMARKS
CINC-COVINGTON FAIR      70  53  54 SW7       30.20S
CINC-LUNKEN    FAIR      70  54  56 SW7       30.20S
HAMILTON       FAIR      73  51  46 SW8       30.19S
DAYTON         FAIR      70  52  52 SW13      30.18S
WRIGHT-PAT AFB FAIR      71  50  46 SW12      30.17S
DAYTON GENERAL FAIR      71  49  45 SW9       30.18S
WILMINGTON     FAIR      68  51  54 SW14      30.19S
$$

OHZ036-037-039>041-045>050-054>059-063>069-073>076-082>088-192300-
  CENTRAL AND SOUTHEAST OHIO

CITY           SKY/WX    TMP DP  RH WIND       PRES   REMARKS
COLUMBUS       FAIR      72  49  44 SW14      30.16S
OSU AIRPORT    FAIR      72  50  45 SW13      30.16R
BOLTON FIELD   CLEAR     72  50  46 SW10      30.18R
RICKENBACK AFB FAIR      70  49  47 SW9       30.17R
NEWARK         FAIR      72  47  40 SW9       30.16S
MARION         FAIR      72  45  37 W9        30.16R
LANCASTER      FAIR      69  50  50 SW10      30.18S
ZANESVILLE     FAIR      70  48  45 SW6       30.17S
NEW PHILLY     FAIR      71  48  43 SW7       30.16S
$$




USA.gov is the U.S. government's official web portal to all federal, state and local government web resources and services.